Time,TemperatureF,DewpointF,PressureIn,WindDirection,WindDirectionDegrees,WindSpeedMPH,WindSpeedGustMPH,Humidity,HourlyPrecipIn,Conditions,Clouds,dailyrainin,SoftwareType,DateUTC
2013-07-01 00:01:00,76.1,69.1,29.70,NNW,342,0.0,3.0,79,0.00,,---,0.00,VWS V14.01,2013-07-01 05:01:00,
2013-07-01 00:06:00,76.0,69.0,29.70,NNW,342,1.0,5.0,79,0.00,,---,0.00,VWS V14.01,2013-07-01 05:06:00,
2013-07-01 00:11:00,76.0,69.0,29.70,NNW,342,0.0,5.0,79,0.00,,---,0.00,VWS V14.01,2013-07-01 05:11:00,
2013-07-01 00:16:00,76.0,69.0,29.70,NNW,342,0.0,5.0,79,0.00,,---,0.00,VWS V14.01,2013-07-01 05:16:00,
2013-07-01 00:21:00,76.0,69.0,29.70,NNW,342,0.0,5.0,79,0.00,,---,0.00,VWS V14.01,2013-07-01 05:21:00,
2013-07-01 00:26:00,76.0,69.0,29.71,NNW,342,2.0,5.0,79,0.00,,---,0.00,VWS V14.01,2013-07-01 05:26:00,
2013-07-01 00:31:00,76.0,69.0,29.70,NNW,342,2.0,3.0,79,0.00,,---,0.00,VWS V14.01,2013-07-01 05:31:00,
2013-07-01 00:36:00,76.0,69.0,29.70,NNW,342,1.0,4.0,79,0.00,,---,0.00,VWS V14.01,2013-07-01 05:36:00,
2013-07-01 00:41:00,76.0,69.4,29.70,NNW,342,3.0,5.0,80,0.00,,---,0.00,VWS V14.01,2013-07-01 05:41:00,
2013-07-01 00:46:00,76.0,69.0,29.70,NNW,344,4.0,7.0,79,0.00,,---,0.00,VWS V14.01,2013-07-01 05:46:00,
2013-07-01 00:51:00,76.0,69.0,29.70,NNW,344,0.0,7.0,79,0.00,,---,0.00,VWS V14.01,2013-07-01 05:51:00,
2013-07-01 00:56:00,76.0,69.0,29.70,NNW,345,0.0,7.0,79,0.00,,---,0.00,VWS V14.01,2013-07-01 05:56:00,
2013-07-01 01:01:00,75.9,69.3,29.70,NNW,346,0.0,4.0,80,0.00,,---,0.00,VWS V14.01,2013-07-01 06:01:00,
2013-07-01 01:06:00,75.8,69.2,29.71,NNW,346,4.0,5.0,80,0.00,,---,0.00,VWS V14.01,2013-07-01 06:06:00,
2013-07-01 01:11:00,75.8,69.2,29.71,NNW,346,1.0,5.0,80,0.00,,---,0.00,VWS V14.01,2013-07-01 06:11:00,
2013-07-01 01:16:00,75.7,69.1,29.71,NNW,346,1.0,5.0,80,0.00,,---,0.00,VWS V14.01,2013-07-01 06:16:00,
2013-07-01 01:21:00,75.7,69.1,29.71,NNW,342,0.0,6.0,80,0.00,,---,0.00,VWS V14.01,2013-07-01 06:21:00,
2013-07-01 01:26:00,75.7,69.1,29.71,NNW,342,1.0,6.0,80,0.00,,---,0.00,VWS V14.01,2013-07-01 06:26:00,
2013-07-01 01:31:00,75.6,69.0,29.70,NNW,342,0.0,3.0,80,0.00,,---,0.00,VWS V14.01,2013-07-01 06:31:00,
2013-07-01 01:36:00,75.5,68.9,29.70,NNW,342,0.0,4.0,80,0.00,,---,0.00,VWS V14.01,2013-07-01 06:36:00,
2013-07-01 01:41:00,75.4,69.2,29.70,NNW,342,1.0,4.0,81,0.00,,---,0.00,VWS V14.01,2013-07-01 06:41:00,
2013-07-01 01:46:00,75.3,69.1,29.70,NNW,342,0.0,4.0,81,0.00,,---,0.00,VWS V14.01,2013-07-01 06:46:00,
2013-07-01 01:51:00,75.2,69.0,29.70,NNW,342,0.0,4.0,81,0.00,,---,0.00,VWS V14.01,2013-07-01 06:51:00,
2013-07-01 01:56:00,75.1,69.2,29.70,NNW,342,2.0,4.0,82,0.00,,---,0.00,VWS V14.01,2013-07-01 06:56:00,
2013-07-01 02:01:00,74.9,69.0,29.70,NNW,342,3.0,3.0,82,0.00,,---,0.00,VWS V14.01,2013-07-01 07:01:00,
2013-07-01 02:06:00,74.8,68.9,29.70,NNW,342,0.0,4.0,82,0.00,,---,0.00,VWS V14.01,2013-07-01 07:06:00,
2013-07-01 02:11:00,74.6,69.1,29.70,NNW,342,0.0,4.0,83,0.00,,---,0.00,VWS V14.01,2013-07-01 07:11:00,
2013-07-01 02:16:00,74.5,69.0,29.70,NNW,342,0.0,4.0,83,0.00,,---,0.00,VWS V14.01,2013-07-01 07:16:00,
2013-07-01 02:21:00,74.4,68.9,29.70,NNW,342,0.0,4.0,83,0.00,,---,0.00,VWS V14.01,2013-07-01 07:21:00,
2013-07-01 02:26:00,74.2,68.7,29.70,NNW,342,0.0,4.0,83,0.00,,---,0.00,VWS V14.01,2013-07-01 07:26:00,
2013-07-01 02:31:00,74.0,68.9,29.70,NNW,342,0.0,1.0,84,0.00,,---,0.00,VWS V14.01,2013-07-01 07:31:00,
2013-07-01 02:36:00,73.9,68.8,29.70,NNW,342,2.0,5.0,84,0.00,,---,0.00,VWS V14.01,2013-07-01 07:36:00,
2013-07-01 02:41:00,73.9,69.1,29.70,NNW,342,0.0,5.0,85,0.00,,---,0.00,VWS V14.01,2013-07-01 07:41:00,
2013-07-01 02:46:00,73.8,69.0,29.70,NNW,342,0.0,5.0,85,0.00,,---,0.00,VWS V14.01,2013-07-01 07:46:00,
2013-07-01 02:51:00,73.8,69.0,29.70,NNW,342,1.0,5.0,85,0.00,,---,0.00,VWS V14.01,2013-07-01 07:51:00,
2013-07-01 02:56:00,73.7,68.9,29.70,NNW,342,5.0,5.0,85,0.00,,---,0.00,VWS V14.01,2013-07-01 07:56:00,
2013-07-01 03:01:00,73.7,68.9,29.70,NNW,342,1.0,5.0,85,0.00,,---,0.00,VWS V14.01,2013-07-01 08:01:00,
2013-07-01 03:06:00,73.7,68.9,29.70,NNW,343,2.0,6.0,85,0.00,,---,0.00,VWS V14.01,2013-07-01 08:06:00,
2013-07-01 03:11:00,73.6,68.8,29.70,NNW,344,0.0,6.0,85,0.00,,---,0.00,VWS V14.01,2013-07-01 08:11:00,
2013-07-01 03:16:00,73.6,68.8,29.70,NNW,343,0.0,6.0,85,0.00,,---,0.00,VWS V14.01,2013-07-01 08:16:00,
2013-07-01 03:21:00,73.5,68.7,29.70,NNW,342,2.0,6.0,85,0.00,,---,0.00,VWS V14.01,2013-07-01 08:21:00,
2013-07-01 03:26:00,73.4,68.6,29.70,NNW,342,0.0,6.0,85,0.00,,---,0.00,VWS V14.01,2013-07-01 08:26:00,
2013-07-01 03:31:00,73.3,68.5,29.70,NNW,346,1.0,5.0,85,0.00,,---,0.00,VWS V14.01,2013-07-01 08:31:00,
2013-07-01 03:36:00,73.2,68.4,29.70,NNW,346,4.0,6.0,85,0.00,,---,0.00,VWS V14.01,2013-07-01 08:36:00,
2013-07-01 03:41:00,73.1,68.7,29.70,NNW,347,3.0,7.0,86,0.00,,---,0.00,VWS V14.01,2013-07-01 08:41:00,
2013-07-01 03:46:00,73.0,68.6,29.71,NNW,346,3.0,7.0,86,0.00,,---,0.00,VWS V14.01,2013-07-01 08:46:00,
2013-07-01 03:51:00,72.8,68.4,29.71,NNW,342,2.0,7.0,86,0.00,,---,0.00,VWS V14.01,2013-07-01 08:51:00,
2013-07-01 03:56:00,72.7,68.3,29.71,NNW,342,3.0,7.0,86,0.00,,---,0.00,VWS V14.01,2013-07-01 08:56:00,
2013-07-01 04:01:00,72.6,68.5,29.71,NNW,336,2.0,6.0,87,0.00,,---,0.00,VWS V14.01,2013-07-01 09:01:00,
2013-07-01 04:06:00,72.4,68.3,29.71,NNW,341,1.0,6.0,87,0.00,,---,0.00,VWS V14.01,2013-07-01 09:06:00,
2013-07-01 04:11:00,72.3,68.2,29.71,NNW,342,2.0,6.0,87,0.00,,---,0.00,VWS V14.01,2013-07-01 09:11:00,
2013-07-01 04:16:00,72.1,68.0,29.71,NNW,344,0.0,7.0,87,0.00,,---,0.00,VWS V14.01,2013-07-01 09:16:00,
2013-07-01 04:21:00,72.0,68.3,29.71,NNW,344,5.0,7.0,88,0.00,,---,0.00,VWS V14.01,2013-07-01 09:21:00,
2013-07-01 04:26:00,71.9,68.2,29.71,NNW,344,2.0,7.0,88,0.00,,---,0.00,VWS V14.01,2013-07-01 09:26:00,
2013-07-01 04:31:00,71.8,68.1,29.72,NNW,344,0.0,1.0,88,0.00,,---,0.00,VWS V14.01,2013-07-01 09:31:00,
2013-07-01 04:36:00,71.7,68.0,29.72,NNW,344,0.0,5.0,88,0.00,,---,0.00,VWS V14.01,2013-07-01 09:36:00,
2013-07-01 04:41:00,71.6,67.9,29.72,NNW,345,0.0,5.0,88,0.00,,---,0.00,VWS V14.01,2013-07-01 09:41:00,
2013-07-01 04:46:00,71.5,67.8,29.72,NNW,346,0.0,5.0,88,0.00,,---,0.00,VWS V14.01,2013-07-01 09:46:00,
2013-07-01 04:51:00,71.4,67.7,29.72,NNW,345,1.0,5.0,88,0.00,,---,0.00,VWS V14.01,2013-07-01 09:51:00,
2013-07-01 04:56:00,71.3,67.9,29.72,NNW,345,0.0,5.0,89,0.00,,---,0.00,VWS V14.01,2013-07-01 09:56:00,
2013-07-01 05:01:00,71.3,67.9,29.73,NNW,345,0.0,5.0,89,0.00,,---,0.00,VWS V14.01,2013-07-01 10:01:00,
2013-07-01 05:06:00,71.2,67.8,29.73,NNW,345,1.0,5.0,89,0.00,,---,0.00,VWS V14.01,2013-07-01 10:06:00,
2013-07-01 05:11:00,71.1,67.7,29.72,NNW,345,0.0,5.0,89,0.00,,---,0.00,VWS V14.01,2013-07-01 10:11:00,
2013-07-01 05:16:00,71.0,67.6,29.72,NNW,345,0.0,5.0,89,0.00,,---,0.00,VWS V14.01,2013-07-01 10:16:00,
2013-07-01 05:21:00,70.8,67.4,29.72,NNW,345,0.0,5.0,89,0.00,,---,0.00,VWS V14.01,2013-07-01 10:21:00,
2013-07-01 05:26:00,70.7,67.6,29.72,NNW,345,0.0,5.0,90,0.00,,---,0.00,VWS V14.01,2013-07-01 10:26:00,
2013-07-01 05:31:00,70.6,67.5,29.72,NNW,345,3.0,3.0,90,0.00,,---,0.00,VWS V14.01,2013-07-01 10:31:00,
2013-07-01 05:36:00,70.4,67.3,29.73,NNW,345,0.0,3.0,90,0.00,,---,0.00,VWS V14.01,2013-07-01 10:36:00,
2013-07-01 05:41:00,70.3,67.2,29.73,NNW,345,0.0,3.0,90,0.00,,---,0.00,VWS V14.01,2013-07-01 10:41:00,
2013-07-01 05:46:00,70.2,67.1,29.73,NNW,345,1.0,3.0,90,0.00,,---,0.00,VWS V14.01,2013-07-01 10:46:00,
2013-07-01 05:51:00,70.1,67.4,29.73,NNW,345,0.0,3.0,91,0.00,,---,0.00,VWS V14.01,2013-07-01 10:51:00,
2013-07-01 05:56:00,70.0,67.3,29.73,NNW,345,0.0,3.0,91,0.00,,---,0.00,VWS V14.01,2013-07-01 10:56:00,
2013-07-01 06:01:00,69.9,67.2,29.73,NNW,343,1.0,4.0,91,0.00,,---,0.00,VWS V14.01,2013-07-01 11:01:00,
2013-07-01 06:06:00,69.9,67.2,29.74,NNW,343,0.0,4.0,91,0.00,,---,0.00,VWS V14.01,2013-07-01 11:06:00,
2013-07-01 06:11:00,69.9,67.2,29.74,NNW,344,4.0,4.0,91,0.00,,---,0.00,VWS V14.01,2013-07-01 11:11:00,
2013-07-01 06:16:00,69.9,67.5,29.74,NNW,344,3.0,6.0,92,0.00,,---,0.00,VWS V14.01,2013-07-01 11:16:00,
2013-07-01 06:21:00,69.9,67.5,29.74,NNW,346,4.0,6.0,92,0.00,,---,0.00,VWS V14.01,2013-07-01 11:21:00,
2013-07-01 06:26:00,70.0,67.3,29.74,NNW,345,3.0,6.0,91,0.00,,---,0.00,VWS V14.01,2013-07-01 11:26:00,
2013-07-01 06:31:00,70.0,67.3,29.74,NNW,342,0.0,6.0,91,0.00,,---,0.00,VWS V14.01,2013-07-01 11:31:00,
2013-07-01 06:36:00,70.1,67.4,29.74,North,350,5.0,6.0,91,0.00,,---,0.00,VWS V14.01,2013-07-01 11:36:00,
2013-07-01 06:41:00,70.3,67.6,29.75,North,351,0.0,6.0,91,0.00,,---,0.00,VWS V14.01,2013-07-01 11:41:00,
2013-07-01 06:46:00,70.5,67.8,29.75,North,355,1.0,6.0,91,0.00,,---,0.00,VWS V14.01,2013-07-01 11:46:00,
2013-07-01 06:51:00,70.7,67.6,29.75,North,355,0.0,6.0,90,0.00,,---,0.00,VWS V14.01,2013-07-01 11:51:00,
2013-07-01 06:56:00,70.9,67.8,29.75,North,5,1.0,7.0,90,0.00,,---,0.00,VWS V14.01,2013-07-01 11:56:00,
2013-07-01 07:01:00,71.2,67.8,29.75,North,9,2.0,6.0,89,0.00,,---,0.00,VWS V14.01,2013-07-01 12:01:00,
2013-07-01 07:06:00,71.5,68.1,29.75,North,5,0.0,6.0,89,0.00,,---,0.00,VWS V14.01,2013-07-01 12:06:00,
2013-07-01 07:11:00,71.7,68.0,29.75,North,5,5.0,6.0,88,0.00,,---,0.00,VWS V14.01,2013-07-01 12:11:00,
2013-07-01 07:16:00,72.0,67.9,29.75,NNW,340,2.0,9.0,87,0.00,,---,0.00,VWS V14.01,2013-07-01 12:16:00,
2013-07-01 07:21:00,72.3,68.2,29.75,North,5,3.0,9.0,87,0.00,,---,0.00,VWS V14.01,2013-07-01 12:21:00,
2013-07-01 07:26:00,72.6,68.5,29.75,North,5,4.0,9.0,87,0.00,,---,0.00,VWS V14.01,2013-07-01 12:26:00,
2013-07-01 07:31:00,73.0,68.2,29.76,North,5,4.0,7.0,85,0.00,,---,0.00,VWS V14.01,2013-07-01 12:31:00,
2013-07-01 07:36:00,73.4,68.3,29.76,NNE,17,0.0,7.0,84,0.00,,---,0.00,VWS V14.01,2013-07-01 12:36:00,
2013-07-01 07:40:00,73.7,68.2,29.76,North,360,4.0,7.0,83,0.00,,---,0.00,VWS V14.01,2013-07-01 12:40:00,
2013-07-01 07:45:00,74.1,68.6,29.76,North,5,0.0,7.0,83,0.00,,---,0.00,VWS V14.01,2013-07-01 12:45:00,
2013-07-01 07:50:00,74.3,68.4,29.76,North,355,0.0,7.0,82,0.00,,---,0.00,VWS V14.01,2013-07-01 12:50:00,
2013-07-01 07:55:00,74.7,68.8,29.76,North,10,0.0,7.0,82,0.00,,---,0.00,VWS V14.01,2013-07-01 12:55:00,
2013-07-01 08:00:00,75.2,69.0,29.76,NNE,14,2.0,6.0,81,0.00,,---,0.00,VWS V14.01,2013-07-01 13:00:00,
2013-07-01 08:05:00,75.6,69.0,29.76,NNE,33,0.0,6.0,80,0.00,,---,0.00,VWS V14.01,2013-07-01 13:05:00,
2013-07-01 08:10:00,76.0,69.0,29.76,NE,38,0.0,6.0,79,0.00,,---,0.00,VWS V14.01,2013-07-01 13:10:00,
2013-07-01 08:15:00,76.3,69.3,29.77,NE,38,1.0,6.0,79,0.00,,---,0.00,VWS V14.01,2013-07-01 13:15:00,
2013-07-01 08:20:00,76.7,69.3,29.77,NE,37,4.0,6.0,78,0.00,,---,0.00,VWS V14.01,2013-07-01 13:20:00,
2013-07-01 08:25:00,77.0,69.2,29.77,NNE,24,0.0,7.0,77,0.00,,---,0.00,VWS V14.01,2013-07-01 13:25:00,
2013-07-01 08:30:00,77.4,69.6,29.77,NNE,13,2.0,5.0,77,0.00,,---,0.00,VWS V14.01,2013-07-01 13:30:00,
2013-07-01 08:35:00,77.6,69.1,29.77,North,355,7.0,7.0,75,0.00,,---,0.00,VWS V14.01,2013-07-01 13:35:00,
2013-07-01 08:40:00,77.9,69.3,29.77,NNW,336,1.0,9.0,75,0.00,,---,0.00,VWS V14.01,2013-07-01 13:40:00,
2013-07-01 08:45:00,78.2,69.6,29.77,NNW,348,4.0,9.0,75,0.00,,---,0.00,VWS V14.01,2013-07-01 13:45:00,
2013-07-01 08:50:00,78.4,69.4,29.77,NNW,346,4.0,9.0,74,0.00,,---,0.00,VWS V14.01,2013-07-01 13:50:00,
2013-07-01 08:55:00,78.5,69.5,29.77,NNE,13,5.0,9.0,74,0.00,,---,0.00,VWS V14.01,2013-07-01 13:55:00,
2013-07-01 09:00:00,78.9,69.5,29.77,NNE,24,4.0,6.0,73,0.00,,---,0.00,VWS V14.01,2013-07-01 14:00:00,
2013-07-01 09:05:00,79.1,69.3,29.77,North,355,3.0,7.0,72,0.00,,---,0.00,VWS V14.01,2013-07-01 14:05:00,
2013-07-01 09:10:00,79.3,69.1,29.77,North,355,5.0,10.0,71,0.00,,---,0.00,VWS V14.01,2013-07-01 14:10:00,
2013-07-01 09:15:00,79.4,69.2,29.77,NNW,346,5.0,10.0,71,0.00,,---,0.00,VWS V14.01,2013-07-01 14:15:00,
2013-07-01 09:20:00,79.5,68.9,29.77,NNW,344,6.0,10.0,70,0.00,,---,0.00,VWS V14.01,2013-07-01 14:20:00,
2013-07-01 09:25:00,79.6,69.0,29.77,NNW,333,7.0,10.0,70,0.00,,---,0.00,VWS V14.01,2013-07-01 14:25:00,
2013-07-01 09:30:00,79.8,68.7,29.77,North,10,5.0,9.0,69,0.00,,---,0.00,VWS V14.01,2013-07-01 14:30:00,
2013-07-01 09:35:00,80.3,69.6,29.77,NNE,12,0.0,9.0,70,0.00,,---,0.00,VWS V14.01,2013-07-01 14:35:00,
2013-07-01 09:40:00,80.8,69.7,29.77,NNE,19,6.0,9.0,69,0.00,,---,0.00,VWS V14.01,2013-07-01 14:40:00,
2013-07-01 09:45:00,81.0,70.7,29.77,North,5,6.0,9.0,71,0.00,,---,0.00,VWS V14.01,2013-07-01 14:45:00,
2013-07-01 09:50:00,81.2,70.5,29.77,North,5,4.0,9.0,70,0.00,,---,0.00,VWS V14.01,2013-07-01 14:50:00,
2013-07-01 09:55:00,81.2,69.2,29.78,NNW,342,9.0,9.0,67,0.00,,---,0.00,VWS V14.01,2013-07-01 14:55:00,
2013-07-01 10:00:00,81.1,69.1,29.77,NNW,346,7.0,10.0,67,0.00,,---,0.00,VWS V14.01,2013-07-01 15:00:00,
2013-07-01 10:05:00,81.0,69.4,29.78,North,355,5.0,11.0,68,0.00,,---,0.00,VWS V14.01,2013-07-01 15:05:00,
2013-07-01 10:10:00,81.0,69.4,29.78,NNW,343,4.0,11.0,68,0.00,,---,0.00,VWS V14.01,2013-07-01 15:10:00,
2013-07-01 10:15:00,81.1,69.6,29.78,North,355,4.0,11.0,68,0.00,,---,0.00,VWS V14.01,2013-07-01 15:15:00,
2013-07-01 10:20:00,81.4,69.4,29.78,NW,319,7.0,11.0,67,0.00,,---,0.00,VWS V14.01,2013-07-01 15:20:00,
2013-07-01 10:25:00,81.6,69.2,29.78,NNW,331,6.0,11.0,66,0.00,,---,0.00,VWS V14.01,2013-07-01 15:25:00,
2013-07-01 10:30:00,81.8,70.2,29.78,North,349,5.0,5.0,68,0.00,,---,0.00,VWS V14.01,2013-07-01 15:30:00,
2013-07-01 10:35:00,82.0,70.0,29.77,NNW,340,2.0,7.0,67,0.00,,---,0.00,VWS V14.01,2013-07-01 15:35:00,
2013-07-01 10:40:00,82.2,69.7,29.77,NNW,332,4.0,9.0,66,0.00,,---,0.00,VWS V14.01,2013-07-01 15:40:00,
2013-07-01 10:45:00,82.2,69.3,29.77,NNW,330,7.0,12.0,65,0.00,,---,0.00,VWS V14.01,2013-07-01 15:45:00,
2013-07-01 10:50:00,82.2,69.7,29.77,NNW,335,6.0,12.0,66,0.00,,---,0.00,VWS V14.01,2013-07-01 15:50:00,
2013-07-01 10:55:00,82.4,69.0,29.77,North,355,4.0,12.0,64,0.00,,---,0.00,VWS V14.01,2013-07-01 15:55:00,
2013-07-01 11:00:00,82.6,70.1,29.78,NNW,343,5.0,10.0,66,0.00,,---,0.00,VWS V14.01,2013-07-01 16:00:00,
2013-07-01 11:05:00,82.9,69.9,29.78,NW,315,3.0,10.0,65,0.00,,---,0.00,VWS V14.01,2013-07-01 16:05:00,
2013-07-01 11:10:00,83.1,70.1,29.78,East,82,4.0,10.0,65,0.00,,---,0.00,VWS V14.01,2013-07-01 16:10:00,
2013-07-01 11:15:00,83.2,69.8,29.78,NNW,329,4.0,14.0,64,0.00,,---,0.00,VWS V14.01,2013-07-01 16:15:00,
2013-07-01 11:20:00,83.3,69.4,29.78,NNW,327,5.0,14.0,63,0.00,,---,0.00,VWS V14.01,2013-07-01 16:20:00,
2013-07-01 11:25:00,83.3,68.5,29.78,WNW,302,10.0,14.0,61,0.00,,---,0.00,VWS V14.01,2013-07-01 16:25:00,
2013-07-01 11:30:00,83.2,68.8,29.78,NNW,340,7.0,10.0,62,0.00,,---,0.00,VWS V14.01,2013-07-01 16:30:00,
2013-07-01 11:35:00,83.5,68.7,29.78,NNW,333,4.0,10.0,61,0.00,,---,0.00,VWS V14.01,2013-07-01 16:35:00,
2013-07-01 11:40:00,83.6,68.7,29.78,North,5,6.0,11.0,61,0.00,,---,0.00,VWS V14.01,2013-07-01 16:40:00,
2013-07-01 11:45:00,83.9,69.5,29.78,NNE,26,5.0,11.0,62,0.00,,---,0.00,VWS V14.01,2013-07-01 16:45:00,
2013-07-01 11:50:00,83.9,68.5,29.78,NNE,14,7.0,11.0,60,0.00,,---,0.00,VWS V14.01,2013-07-01 16:50:00,
2013-07-01 11:55:00,84.1,70.2,29.78,ENE,67,9.0,13.0,63,0.00,,---,0.00,VWS V14.01,2013-07-01 16:55:00,
2013-07-01 12:01:00,84.1,69.7,29.78,NNW,343,5.0,7.0,62,0.00,,---,0.00,VWS V14.01,2013-07-01 17:01:00,
2013-07-01 12:06:00,84.3,69.4,29.78,NE,55,1.0,9.0,61,0.00,,---,0.00,VWS V14.01,2013-07-01 17:06:00,
2013-07-01 12:11:00,84.2,69.8,29.78,NNE,13,0.0,9.0,62,0.00,,---,0.00,VWS V14.01,2013-07-01 17:11:00,
2013-07-01 12:16:00,83.9,69.0,29.78,NNW,331,4.0,10.0,61,0.00,,---,0.00,VWS V14.01,2013-07-01 17:16:00,
2013-07-01 12:21:00,83.8,68.0,29.78,NNW,332,5.0,10.0,59,0.00,,---,0.00,VWS V14.01,2013-07-01 17:21:00,
2013-07-01 12:26:00,84.3,67.4,29.78,NNE,33,1.0,10.0,57,0.00,,---,0.00,VWS V14.01,2013-07-01 17:26:00,
2013-07-01 12:31:00,84.8,68.4,29.78,NNW,338,4.0,10.0,58,0.00,,---,0.00,VWS V14.01,2013-07-01 17:31:00,
2013-07-01 12:36:00,85.0,68.6,29.77,NNE,21,3.0,10.0,58,0.00,,---,0.00,VWS V14.01,2013-07-01 17:36:00,
2013-07-01 12:41:00,85.3,70.3,29.77,NNW,342,4.0,10.0,61,0.00,,---,0.00,VWS V14.01,2013-07-01 17:41:00,
2013-07-01 12:46:00,85.1,68.2,29.77,NW,320,6.0,11.0,57,0.00,,---,0.00,VWS V14.01,2013-07-01 17:46:00,
2013-07-01 12:51:00,85.0,67.6,29.77,NNW,341,4.0,11.0,56,0.00,,---,0.00,VWS V14.01,2013-07-01 17:51:00,
2013-07-01 12:56:00,85.1,67.7,29.76,NW,326,7.0,13.0,56,0.00,,---,0.00,VWS V14.01,2013-07-01 17:56:00,
2013-07-01 13:01:00,85.0,67.6,29.76,WNW,303,3.0,10.0,56,0.00,,---,0.00,VWS V14.01,2013-07-01 18:01:00,
2013-07-01 13:06:00,85.4,68.4,29.77,NW,317,6.0,11.0,57,0.00,,---,0.00,VWS V14.01,2013-07-01 18:06:00,
2013-07-01 13:11:00,85.4,67.4,29.77,West,271,2.0,12.0,55,0.00,,---,0.00,VWS V14.01,2013-07-01 18:11:00,
2013-07-01 13:16:00,85.4,67.4,29.77,NNW,346,6.0,12.0,55,0.00,,---,0.00,VWS V14.01,2013-07-01 18:16:00,
2013-07-01 13:21:00,85.2,68.8,29.76,NNW,342,10.0,12.0,58,0.00,,---,0.00,VWS V14.01,2013-07-01 18:21:00,
2013-07-01 13:26:00,85.1,67.1,29.76,NNW,331,4.0,13.0,55,0.00,,---,0.00,VWS V14.01,2013-07-01 18:26:00,
2013-07-01 13:31:00,85.3,69.8,29.76,NNW,348,5.0,7.0,60,0.00,,---,0.00,VWS V14.01,2013-07-01 18:31:00,
2013-07-01 13:36:00,85.8,69.8,29.75,NNW,347,6.0,7.0,59,0.00,,---,0.00,VWS V14.01,2013-07-01 18:36:00,
2013-07-01 13:41:00,85.9,68.4,29.75,NW,306,2.0,8.0,56,0.00,,---,0.00,VWS V14.01,2013-07-01 18:41:00,
2013-07-01 13:46:00,85.9,68.9,29.75,NNE,12,5.0,13.0,57,0.00,,---,0.00,VWS V14.01,2013-07-01 18:46:00,
2013-07-01 13:51:00,86.0,69.0,29.75,NE,36,0.0,13.0,57,0.00,,---,0.00,VWS V14.01,2013-07-01 18:51:00,
2013-07-01 13:56:00,85.7,68.2,29.75,NNE,32,2.0,13.0,56,0.00,,---,0.00,VWS V14.01,2013-07-01 18:56:00,
2013-07-01 14:01:00,85.6,69.6,29.75,NNW,342,4.0,8.0,59,0.00,,---,0.00,VWS V14.01,2013-07-01 19:01:00,
2013-07-01 14:06:00,85.4,67.4,29.75,NW,311,0.0,12.0,55,0.00,,---,0.00,VWS V14.01,2013-07-01 19:06:00,
2013-07-01 14:11:00,85.3,68.3,29.75,North,355,10.0,12.0,57,0.00,,---,0.00,VWS V14.01,2013-07-01 19:11:00,
2013-07-01 14:16:00,85.4,67.9,29.74,North,355,2.0,12.0,56,0.00,,---,0.00,VWS V14.01,2013-07-01 19:16:00,
2013-07-01 14:21:00,85.1,68.2,29.74,North,355,4.0,12.0,57,0.00,,---,0.00,VWS V14.01,2013-07-01 19:21:00,
2013-07-01 14:26:00,85.1,67.7,29.74,North,355,0.0,12.0,56,0.00,,---,0.00,VWS V14.01,2013-07-01 19:26:00,
2013-07-01 14:31:00,85.4,69.9,29.74,NNW,341,4.0,4.0,60,0.00,,---,0.00,VWS V14.01,2013-07-01 19:31:00,
2013-07-01 14:36:00,85.6,68.1,29.74,NW,310,0.0,5.0,56,0.00,,---,0.00,VWS V14.01,2013-07-01 19:36:00,
2013-07-01 14:41:00,85.5,69.6,29.74,NNW,336,2.0,7.0,59,0.00,,---,0.00,VWS V14.01,2013-07-01 19:41:00,
2013-07-01 14:46:00,85.7,68.7,29.75,NW,309,2.0,7.0,57,0.00,,---,0.00,VWS V14.01,2013-07-01 19:46:00,
2013-07-01 14:51:00,85.5,68.0,29.75,NNW,340,2.0,7.0,56,0.00,,---,0.00,VWS V14.01,2013-07-01 19:51:00,
2013-07-01 14:56:00,85.5,69.1,29.75,NNW,348,0.0,7.0,58,0.00,,---,0.00,VWS V14.01,2013-07-01 19:56:00,
2013-07-01 15:01:00,85.4,67.9,29.75,NNW,345,0.0,3.0,56,0.00,,---,0.00,VWS V14.01,2013-07-01 20:01:00,
2013-07-01 15:06:00,85.2,69.3,29.75,NNW,345,0.0,4.0,59,0.00,,---,0.00,VWS V14.01,2013-07-01 20:06:00,
2013-07-01 15:11:00,85.6,68.6,29.74,NNW,344,1.0,4.0,57,0.00,,---,0.00,VWS V14.01,2013-07-01 20:11:00,
2013-07-01 15:16:00,86.4,68.3,29.75,NNW,339,3.0,4.0,55,0.00,,---,0.00,VWS V14.01,2013-07-01 20:16:00,
2013-07-01 15:21:00,86.8,67.6,29.75,NE,56,7.0,8.0,53,0.00,,---,0.00,VWS V14.01,2013-07-01 20:21:00,
2013-07-01 15:26:00,86.9,67.7,29.75,North,360,3.0,8.0,53,0.00,,---,0.00,VWS V14.01,2013-07-01 20:26:00,
2013-07-01 15:31:00,86.8,69.2,29.75,North,355,0.0,3.0,56,0.00,,---,0.00,VWS V14.01,2013-07-01 20:31:00,
2013-07-01 15:36:00,86.8,68.7,29.75,NNW,346,5.0,7.0,55,0.00,,---,0.00,VWS V14.01,2013-07-01 20:36:00,
2013-07-01 15:41:00,86.7,68.6,29.75,NNW,348,0.0,7.0,55,0.00,,---,0.00,VWS V14.01,2013-07-01 20:41:00,
2013-07-01 15:46:00,86.5,70.0,29.75,NNW,329,2.0,7.0,58,0.00,,---,0.00,VWS V14.01,2013-07-01 20:46:00,
2013-07-01 15:51:00,86.1,68.6,29.75,NNW,329,0.0,7.0,56,0.00,,---,0.00,VWS V14.01,2013-07-01 20:51:00,
2013-07-01 15:56:00,86.1,71.1,29.75,NNW,329,0.0,7.0,61,0.00,,---,0.00,VWS V14.01,2013-07-01 20:56:00,
2013-07-01 16:01:00,86.1,70.6,29.75,NNW,329,0.0,0.0,60,0.00,,---,0.00,VWS V14.01,2013-07-01 21:01:00,
2013-07-01 16:06:00,86.8,69.2,29.75,NW,313,6.0,6.0,56,0.00,,---,0.00,VWS V14.01,2013-07-01 21:06:00,
2013-07-01 16:11:00,87.4,67.6,29.75,NW,323,6.0,8.0,52,0.00,,---,0.00,VWS V14.01,2013-07-01 21:11:00,
2013-07-01 16:16:00,86.9,68.3,29.75,NNW,345,0.0,8.0,54,0.00,,---,0.00,VWS V14.01,2013-07-01 21:16:00,
2013-07-01 16:21:00,86.3,67.7,29.75,NNW,344,0.0,8.0,54,0.00,,---,0.00,VWS V14.01,2013-07-01 21:21:00,
2013-07-01 16:26:00,85.9,69.4,29.75,NNW,344,0.0,8.0,58,0.00,,---,0.00,VWS V14.01,2013-07-01 21:26:00,
2013-07-01 16:31:00,85.5,69.6,29.75,North,350,0.0,4.0,59,0.00,,---,0.00,VWS V14.01,2013-07-01 21:31:00,
2013-07-01 16:36:00,85.4,70.4,29.75,North,350,0.0,4.0,61,0.00,,---,0.00,VWS V14.01,2013-07-01 21:36:00,
2013-07-01 16:41:00,85.3,69.4,29.75,NNE,22,5.0,10.0,59,0.00,,---,0.00,VWS V14.01,2013-07-01 21:41:00,
2013-07-01 16:46:00,85.4,70.4,29.75,West,272,6.0,10.0,61,0.00,,---,0.00,VWS V14.01,2013-07-01 21:46:00,
2013-07-01 16:51:00,85.7,70.7,29.75,WNW,291,3.0,10.0,61,0.00,,---,0.00,VWS V14.01,2013-07-01 21:51:00,
2013-07-01 16:56:00,85.8,70.8,29.74,West,281,0.0,10.0,61,0.00,,---,0.00,VWS V14.01,2013-07-01 21:56:00,
2013-07-01 17:01:00,85.6,71.1,29.74,West,279,0.0,2.0,62,0.00,,---,0.00,VWS V14.01,2013-07-01 22:01:00,
2013-07-01 17:06:00,85.7,70.2,29.74,West,279,0.0,4.0,60,0.00,,---,0.00,VWS V14.01,2013-07-01 22:06:00,
2013-07-01 17:11:00,86.2,70.7,29.74,WNW,288,5.0,6.0,60,0.00,,---,0.00,VWS V14.01,2013-07-01 22:11:00,
2013-07-01 17:16:00,86.5,71.0,29.74,WNW,284,0.0,6.0,60,0.00,,---,0.00,VWS V14.01,2013-07-01 22:16:00,
2013-07-01 17:21:00,86.9,68.3,29.74,NW,312,2.0,6.0,54,0.00,,---,0.00,VWS V14.01,2013-07-01 22:21:00,
2013-07-01 17:26:00,87.3,67.5,29.75,North,9,2.0,6.0,52,0.00,,---,0.00,VWS V14.01,2013-07-01 22:26:00,
2013-07-01 17:31:00,87.6,67.2,29.75,NNW,340,0.0,6.0,51,0.00,,---,0.00,VWS V14.01,2013-07-01 22:31:00,
2013-07-01 17:36:00,87.6,67.2,29.75,North,350,3.0,9.0,51,0.00,,---,0.00,VWS V14.01,2013-07-01 22:36:00,
2013-07-01 17:41:00,87.1,67.9,29.75,North,349,4.0,9.0,53,0.00,,---,0.00,VWS V14.01,2013-07-01 22:41:00,
2013-07-01 17:46:00,86.8,68.2,29.75,NNE,33,0.0,9.0,54,0.00,,---,0.00,VWS V14.01,2013-07-01 22:46:00,
2013-07-01 17:51:00,86.8,67.1,29.75,North,5,0.0,9.0,52,0.00,,---,0.00,VWS V14.01,2013-07-01 22:51:00,
2013-07-01 17:56:00,87.0,67.3,29.75,North,360,2.0,9.0,52,0.00,,---,0.00,VWS V14.01,2013-07-01 22:56:00,
2013-07-01 18:01:00,87.0,67.8,29.75,NNE,17,3.0,4.0,53,0.00,,---,0.00,VWS V14.01,2013-07-01 23:01:00,
2013-07-01 18:06:00,86.9,67.7,29.75,NNE,17,1.0,5.0,53,0.00,,---,0.00,VWS V14.01,2013-07-01 23:06:00,
2013-07-01 18:11:00,86.9,68.3,29.75,North,11,1.0,7.0,54,0.00,,---,0.00,VWS V14.01,2013-07-01 23:11:00,
2013-07-01 18:16:00,86.7,68.1,29.75,North,360,4.0,7.0,54,0.00,,---,0.00,VWS V14.01,2013-07-01 23:16:00,
2013-07-01 18:21:00,86.4,68.3,29.75,NNE,12,4.0,7.0,55,0.00,,---,0.00,VWS V14.01,2013-07-01 23:21:00,
2013-07-01 18:26:00,86.4,69.9,29.76,North,10,1.0,7.0,58,0.00,,---,0.00,VWS V14.01,2013-07-01 23:26:00,
2013-07-01 18:31:00,86.3,68.8,29.76,NNE,19,1.0,5.0,56,0.00,,---,0.00,VWS V14.01,2013-07-01 23:31:00,
2013-07-01 18:36:00,85.8,68.8,29.76,NNE,19,0.0,5.0,57,0.00,,---,0.00,VWS V14.01,2013-07-01 23:36:00,
2013-07-01 18:41:00,85.4,69.4,29.76,NNE,19,0.0,5.0,59,0.00,,---,0.00,VWS V14.01,2013-07-01 23:41:00,
2013-07-01 18:46:00,84.8,69.9,29.77,NNE,19,0.0,5.0,61,0.00,,---,0.00,VWS V14.01,2013-07-01 23:46:00,
2013-07-01 18:51:00,84.6,70.2,29.77,NNE,19,0.0,5.0,62,0.00,,---,0.00,VWS V14.01,2013-07-01 23:51:00,
2013-07-01 19:06:00,84.8,69.9,29.78,NNE,19,0.0,0.0,61,0.00,,---,0.00,VWS V14.01,2013-07-02 00:06:00,
2013-07-01 19:11:00,84.4,70.4,29.78,NNE,19,0.0,1.0,63,0.00,,---,0.00,VWS V14.01,2013-07-02 00:11:00,
2013-07-01 19:16:00,83.7,70.7,29.78,NNE,19,0.0,1.0,65,0.00,,---,0.00,VWS V14.01,2013-07-02 00:16:00,
2013-07-01 19:21:00,82.9,70.4,29.78,NNE,19,0.0,1.0,66,0.00,,---,0.00,VWS V14.01,2013-07-02 00:21:00,
2013-07-01 19:26:00,82.2,70.6,29.78,NNE,19,0.0,1.0,68,0.00,,---,0.00,VWS V14.01,2013-07-02 00:26:00,
2013-07-01 19:31:00,81.6,70.9,29.78,NNE,19,0.0,0.0,70,0.00,,---,0.00,VWS V14.01,2013-07-02 00:31:00,
2013-07-01 19:36:00,81.1,70.4,29.78,NNE,19,0.0,0.0,70,0.00,,---,0.00,VWS V14.01,2013-07-02 00:36:00,
2013-07-01 19:41:00,80.6,69.9,29.78,NNE,19,0.0,0.0,70,0.00,,---,0.00,VWS V14.01,2013-07-02 00:41:00,
2013-07-01 19:46:00,80.1,69.9,29.79,NNE,19,0.0,0.0,71,0.00,,---,0.00,VWS V14.01,2013-07-02 00:46:00,
2013-07-01 19:51:00,79.7,69.9,29.79,NNE,19,0.0,0.0,72,0.00,,---,0.00,VWS V14.01,2013-07-02 00:51:00,
2013-07-01 19:56:00,79.3,69.5,29.79,NNE,19,0.0,0.0,72,0.00,,---,0.00,VWS V14.01,2013-07-02 00:56:00,
2013-07-01 20:01:00,79.0,69.6,29.79,NNE,19,0.0,0.0,73,0.00,,---,0.00,VWS V14.01,2013-07-02 01:01:00,
2013-07-01 20:06:00,78.6,69.2,29.79,NNE,19,0.0,0.0,73,0.00,,---,0.00,VWS V14.01,2013-07-02 01:06:00,
2013-07-01 20:11:00,78.2,69.2,29.79,NNE,19,0.0,0.0,74,0.00,,---,0.00,VWS V14.01,2013-07-02 01:11:00,
2013-07-01 20:16:00,77.9,69.3,29.80,NNE,19,0.0,0.0,75,0.00,,---,0.00,VWS V14.01,2013-07-02 01:16:00,
2013-07-01 20:21:00,77.6,69.4,29.80,NNE,19,0.0,0.0,76,0.00,,---,0.00,VWS V14.01,2013-07-02 01:21:00,
2013-07-01 20:26:00,77.3,69.5,29.79,NNE,19,0.0,0.0,77,0.00,,---,0.00,VWS V14.01,2013-07-02 01:26:00,
2013-07-01 20:31:00,76.9,69.5,29.80,NNE,19,0.0,0.0,78,0.00,,---,0.00,VWS V14.01,2013-07-02 01:31:00,
2013-07-01 20:36:00,76.5,69.1,29.80,NNE,19,0.0,0.0,78,0.00,,---,0.00,VWS V14.01,2013-07-02 01:36:00,
2013-07-01 20:41:00,76.0,68.7,29.79,NNE,19,0.0,0.0,78,0.00,,---,0.00,VWS V14.01,2013-07-02 01:41:00,
2013-07-01 20:46:00,75.6,68.3,29.80,NNE,19,0.0,0.0,78,0.00,,---,0.00,VWS V14.01,2013-07-02 01:46:00,
2013-07-01 20:51:00,75.3,68.3,29.80,NNE,19,0.0,0.0,79,0.00,,---,0.00,VWS V14.01,2013-07-02 01:51:00,
2013-07-01 20:56:00,75.1,68.5,29.80,NNE,19,0.0,0.0,80,0.00,,---,0.00,VWS V14.01,2013-07-02 01:56:00,
2013-07-01 21:01:00,75.0,68.8,29.80,NNE,19,0.0,0.0,81,0.00,,---,0.00,VWS V14.01,2013-07-02 02:01:00,
2013-07-01 21:06:00,74.8,68.6,29.80,NNE,19,0.0,0.0,81,0.00,,---,0.00,VWS V14.01,2013-07-02 02:06:00,
2013-07-01 21:11:00,74.5,68.3,29.81,NNE,19,0.0,0.0,81,0.00,,---,0.00,VWS V14.01,2013-07-02 02:11:00,
2013-07-01 21:16:00,74.2,68.0,29.81,NNE,19,0.0,0.0,81,0.00,,---,0.00,VWS V14.01,2013-07-02 02:16:00,
2013-07-01 21:21:00,74.0,68.2,29.81,NNE,19,0.0,0.0,82,0.00,,---,0.00,VWS V14.01,2013-07-02 02:21:00,
2013-07-01 21:26:00,73.9,68.4,29.81,NNE,19,0.0,0.0,83,0.00,,---,0.00,VWS V14.01,2013-07-02 02:26:00,
2013-07-01 21:31:00,73.7,68.2,29.81,NNE,19,0.0,1.0,83,0.00,,---,0.00,VWS V14.01,2013-07-02 02:31:00,
2013-07-01 21:36:00,73.6,68.1,29.81,NNE,19,0.0,1.0,83,0.00,,---,0.00,VWS V14.01,2013-07-02 02:36:00,
2013-07-01 21:41:00,73.6,68.8,29.81,NNE,19,0.0,1.0,85,0.00,,---,0.00,VWS V14.01,2013-07-02 02:41:00,
2013-07-01 21:46:00,73.6,68.8,29.81,NNE,19,0.0,1.0,85,0.00,,---,0.00,VWS V14.01,2013-07-02 02:46:00,
2013-07-01 21:51:00,73.4,68.3,29.81,NNE,19,0.0,1.0,84,0.00,,---,0.00,VWS V14.01,2013-07-02 02:51:00,
2013-07-01 21:56:00,73.3,68.5,29.81,NNE,19,0.0,1.0,85,0.00,,---,0.00,VWS V14.01,2013-07-02 02:56:00,
2013-07-01 22:01:00,73.2,68.4,29.82,NNE,19,0.0,0.0,85,0.00,,---,0.00,VWS V14.01,2013-07-02 03:01:00,
2013-07-01 22:06:00,73.0,68.2,29.82,NNE,19,0.0,0.0,85,0.00,,---,0.00,VWS V14.01,2013-07-02 03:06:00,
2013-07-01 22:11:00,72.8,68.0,29.82,NNE,19,0.0,0.0,85,0.00,,---,0.00,VWS V14.01,2013-07-02 03:11:00,
2013-07-01 22:16:00,72.7,68.6,29.82,NNE,19,0.0,0.0,87,0.00,,---,0.00,VWS V14.01,2013-07-02 03:16:00,
2013-07-01 22:21:00,72.8,68.7,29.82,NNE,19,0.0,0.0,87,0.00,,---,0.00,VWS V14.01,2013-07-02 03:21:00,
2013-07-01 22:26:00,72.6,68.5,29.82,NNE,19,0.0,0.0,87,0.00,,---,0.00,VWS V14.01,2013-07-02 03:26:00,
2013-07-01 22:31:00,72.4,68.0,29.82,NNE,19,0.0,0.0,86,0.00,,---,0.00,VWS V14.01,2013-07-02 03:31:00,
2013-07-01 22:36:00,72.3,67.9,29.82,NNE,19,0.0,0.0,86,0.00,,---,0.00,VWS V14.01,2013-07-02 03:36:00,
2013-07-01 22:41:00,72.2,67.4,29.82,NNE,19,0.0,0.0,85,0.00,,---,0.00,VWS V14.01,2013-07-02 03:41:00,
2013-07-01 22:46:00,72.2,67.4,29.82,NNE,19,0.0,0.0,85,0.00,,---,0.00,VWS V14.01,2013-07-02 03:46:00,
2013-07-01 22:51:00,72.1,67.7,29.82,NNE,19,0.0,0.0,86,0.00,,---,0.00,VWS V14.01,2013-07-02 03:51:00,
2013-07-01 22:56:00,72.0,67.6,29.83,NNE,19,0.0,0.0,86,0.00,,---,0.00,VWS V14.01,2013-07-02 03:56:00,
2013-07-01 23:01:00,71.9,67.5,29.83,NNE,19,0.0,0.0,86,0.00,,---,0.00,VWS V14.01,2013-07-02 04:01:00,
2013-07-01 23:06:00,71.8,67.7,29.83,NNE,19,0.0,0.0,87,0.00,,---,0.00,VWS V14.01,2013-07-02 04:06:00,
2013-07-01 23:11:00,71.7,67.6,29.83,NNE,19,0.0,0.0,87,0.00,,---,0.00,VWS V14.01,2013-07-02 04:11:00,
2013-07-01 23:16:00,71.6,67.2,29.83,NNE,19,0.0,1.0,86,0.00,,---,0.00,VWS V14.01,2013-07-02 04:16:00,
2013-07-01 23:21:00,71.6,67.5,29.83,NNE,19,0.0,1.0,87,0.00,,---,0.00,VWS V14.01,2013-07-02 04:21:00,
2013-07-01 23:26:00,71.6,67.5,29.83,NNE,19,0.0,1.0,87,0.00,,---,0.00,VWS V14.01,2013-07-02 04:26:00,
2013-07-01 23:31:00,71.5,67.4,29.83,NNE,19,0.0,0.0,87,0.00,,---,0.00,VWS V14.01,2013-07-02 04:31:00,
2013-07-01 23:36:00,71.4,67.3,29.83,NNE,19,0.0,0.0,87,0.00,,---,0.00,VWS V14.01,2013-07-02 04:36:00,
2013-07-01 23:41:00,71.4,67.3,29.83,NNE,19,0.0,0.0,87,0.00,,---,0.00,VWS V14.01,2013-07-02 04:41:00,
2013-07-01 23:46:00,71.4,67.3,29.83,NNE,19,0.0,0.0,87,0.00,,---,0.00,VWS V14.01,2013-07-02 04:46:00,
2013-07-01 23:51:00,71.5,67.4,29.83,NNE,19,0.0,0.0,87,0.00,,---,0.00,VWS V14.01,2013-07-02 04:51:00,
2013-07-01 23:56:00,71.6,67.9,29.83,NNE,19,0.0,0.0,88,0.00,,---,0.00,VWS V14.01,2013-07-02 04:56:00,